Flag for Canada Weather past 2 weeks in Moncton, New Brunswick, Canada

Now
28 °F

Passing clouds.


Feels Like: 22 °F
Forecast: 28 / 44 °F
Wind: 6 mph from Southwest

Location: Moncton

Current Time: Dec 28, 2014 at 1:19:25 AM

Latest Report: Dec 28, 2014 at 12:00 AM


Visibility: 15 mi

Pressure: 29.97 "Hg

Humidity: 74%

Dew point: 21 °F

Location of MonctonLocation

Historic Weather in Moncton — Graph

°F

Moncton temperature yesterday

Maximum temperature yesterday: 41 °F (at 2:00 PM)
Minimum temperature yesterday: 27 °F (at 10:00 PM)
Average temperature yesterday: 35 °F

Past Weeks' High & Low Weather Summary

 TemperatureHumidityPressure
High61 °F (Dec 25, 11:00 AM)100% (Dec 12, 11:00 PM)30.49 "Hg (Dec 12, 11:00 PM)
Low23 °F (Dec 23, 1:00 AM)42% (Dec 26, 3:00 PM)29.27 "Hg (Dec 25, 4:00 PM)
Average32 °F84%29.95 "Hg
* Reported Dec 12 11:00 PM — Dec 27 11:00 PM, Moncton, Weather by CustomWeather, © 2014

Note: Actual official high and low records may vary slightly from our data, if they occured in-between our weather recording intervals... More about our weather records

Advertising

Moncton weather history for previous 24 hours

 ConditionsComfort  
Time TempWeatherWind HumidityBarometerVisibility
11:00 PM
Dec 27
27 °FPassing clouds.9 mph74%30.00 "Hg15 mi
10:00 PM27 °FPassing clouds.8 mph74%30.01 "Hg15 mi
9:00 PM28 °FPartly cloudy.8 mph69%30.01 "Hg15 mi
8:00 PM32 °FPartly cloudy.7 mph55%30.02 "Hg15 mi
7:00 PM32 °FPartly cloudy.7 mph55%30.00 "Hg15 mi
6:00 PM34 °FPassing clouds.8 mph51%29.99 "Hg15 mi
5:00 PM36 °FPassing clouds.8 mph48%29.98 "Hg15 mi
4:00 PM37 °FPassing clouds.13 mph45%29.97 "Hg15 mi
3:00 PM39 °FPassing clouds.16 mph45%29.95 "Hg15 mi
2:00 PM41 °FPassing clouds.16 mph45%29.93 "Hg15 mi
1:00 PM39 °FPassing clouds.20 mph52%29.93 "Hg15 mi
12:00 PM39 °FPartly sunny.21 mph52%29.94 "Hg15 mi
11:00 AM39 °FPassing clouds.24 mph52%29.96 "Hg15 mi
10:00 AM37 °FPassing clouds.17 mph65%29.95 "Hg15 mi
9:00 AM36 °FPassing clouds.14 mph70%29.93 "Hg15 mi
8:00 AM36 °FPartly sunny.16 mph70%29.91 "Hg15 mi
7:00 AM36 °FClear.16 mph70%29.90 "Hg15 mi
6:00 AM34 °FClear.13 mph70%29.88 "Hg15 mi
5:00 AM34 °FClear.15 mph70%29.87 "Hg15 mi
4:00 AM34 °FClear.14 mph70%29.87 "Hg15 mi
3:00 AM34 °FClear.16 mph70%29.88 "Hg15 mi
2:00 AM34 °FClear.16 mph65%29.88 "Hg15 mi
1:00 AM34 °FClear.18 mph70%29.88 "Hg15 mi
Weather by CustomWeather, © 2014

See weather overviewHow to use our weather pages